FW6456 Weather Reports


time (UTC)temp
C
wind
direction
speed
KPH
gust
KPH
rain 1hr
cm
rain 24hr
cm
rain mn
cm
humidity
%
barometer
mb
20260506211603 15 355 3.2 4.8 0.00 0.99 0.99 71 3406.6
20260506211100 15 68 1.6 3.2 0.00 0.99 0.99 71 3406.3
20260506210556 15 344 3.2 3.2 0.00 0.99 0.99 71 3406.0
20260506210053 15 268 8.0 11.3 0.00 0.99 0.99 71 3405.7
20260506205549 15 239 3.2 3.2 0.00 0.99 0.99 72 3406.1
20260506205044 15 334 4.8 8.0 0.00 0.99 0.99 72 3405.9
20260506204543 15 346 1.6 3.2 0.00 0.99 0.99 73 3406.0
20260506204039 15 17 1.6 3.2 0.00 0.99 0.99 73 3406.6
20260506203538 15 321 3.2 4.8 0.00 0.99 0.99 73 3406.7
20260506203034 15 350 0.0 0.0 0.00 0.99 0.99 72 3406.9
20260506202532 15 28 1.6 3.2 0.00 0.99 0.99 73 3407.1
20260506202028 15 254 3.2 3.2 0.00 0.99 0.99 73 3407.4
20260506201526 15 348 3.2 4.8 0.00 0.99 0.99 74 3407.3
20260506201022 15 57 0.0 0.0 0.00 0.99 0.99 76 3407.2
20260506200518 15 13 3.2 4.8 0.00 0.99 0.99 74 3407.3
20260506200015 15 293 0.0 0.0 0.00 0.99 0.99 73 3407.1
20260506195513 15 351 0.0 3.2 0.00 0.99 0.99 73 3406.8
20260506195008 15 327 6.4 8.0 0.00 0.99 0.99 71 3406.8
20260506194505 15 314 8.0 11.3 0.00 0.99 0.99 72 3406.9
20260506193956 15 94 0.0 0.0 0.00 0.99 0.99 73 3407.1
20260506193454 15 310 3.2 4.8 0.00 0.99 0.99 72 3406.9
20260506192950 15 335 4.8 4.8 0.00 0.99 0.99 72 3407.4
20260506192447 15 23 0.0 0.0 0.00 0.99 0.99 72 3407.3
20260506191944 15 279 4.8 4.8 0.00 0.99 0.99 72 3407.0
20260506191440 15 70 0.0 0.0 0.00 0.99 0.99 73 3407.0
20260506190931 15 309 1.6 3.2 0.00 0.99 0.99 71 3406.8
20260506190428 15 25 0.0 0.0 0.00 0.99 0.99 72 3406.7
20260506185925 15 166 1.6 3.2 0.00 0.99 0.99 71 3406.9
20260506185422 15 143 1.6 3.2 0.00 0.99 0.99 71 3407.1
20260506184919 15 144 0.0 0.0 0.00 0.99 0.99 70 3406.8
20260506184416 15 182 0.0 3.2 0.00 0.99 0.99 69 3407.1
20260506183914 15 5 4.8 4.8 0.00 0.99 0.99 69 3407.1
20260506183408 16 308 4.8 4.8 0.00 0.99 0.99 67 3407.1
20260506182905 16 25 1.6 3.2 0.00 0.99 0.99 67 3406.9
20260506182403 16 67 0.0 0.0 0.00 0.99 0.99 68 3406.8
20260506181859 16 320 6.4 8.0 0.00 0.99 0.99 68 3407.0
20260506181358 16 307 3.2 4.8 0.00 0.99 0.99 68 3406.7
20260506180855 16 11 3.2 4.8 0.00 0.99 0.99 67 3406.6
20260506180351 16 295 11.3 16.1 0.00 0.99 0.99 66 3406.7
20260506175848 16 158 4.8 4.8 0.00 0.99 0.99 68 3406.6
20260506175345 16 103 3.2 3.2 0.00 0.99 0.99 66 3406.4
20260506174841 16 304 3.2 4.8 0.00 0.99 0.99 67 3406.2
20260506174339 16 129 3.2 4.8 0.00 0.99 0.99 68 3406.5
20260506173837 16 77 3.2 4.8 0.00 0.99 0.99 67 3406.3
20260506173333 16 79 0.0 0.0 0.00 0.99 0.99 70 3406.1
20260506172830 16 100 0.0 3.2 0.00 0.99 0.99 70 3406.4
20260506172327 16 78 1.6 3.2 0.00 0.99 0.99 68 3406.4
20260506171824 16 6 4.8 4.8 0.00 0.99 0.99 70 3406.5
20260506171321 15 76 0.0 0.0 0.00 0.99 0.99 73 3406.5
20260506170819 16 149 1.6 3.2 0.00 0.99 0.99 68 3406.6
20260506170314 16 151 4.8 4.8 0.00 0.99 0.99 70 3406.8
20260506165814 15 39 0.0 0.0 0.00 0.99 0.99 70 3407.0
20260506165311 15 167 1.6 4.8 0.00 0.99 0.99 72 3406.6
20260506164807 15 37 0.0 3.2 0.00 0.99 0.99 71 3407.1
20260506164304 15 316 0.0 3.2 0.00 0.99 0.99 70 3407.1
20260506163801 15 217 1.6 3.2 0.00 0.99 0.99 71 3407.0
20260506163256 14 293 1.6 4.8 0.00 0.99 0.99 72 3407.2
20260506162752 14 257 9.7 12.9 0.00 0.99 0.99 73 3407.1
20260506162250 14 348 8.0 11.3 0.00 0.99 0.99 74 3407.1
20260506161747 15 263 6.4 8.0 0.00 0.99 0.99 75 3406.9
20260506161244 15 112 0.0 0.0 0.00 0.99 0.99 75 3407.2
20260506160742 14 46 1.6 3.2 0.00 0.99 0.99 75 3406.9
20260506160238 14 135 1.6 3.2 0.00 0.99 0.99 76 3407.2
20260506155737 14 116 0.0 3.2 0.00 0.99 0.99 76 3407.0
20260506155233 14 114 0.0 3.2 0.00 0.99 0.99 77 3406.9
20260506153341 13 72 0.0 3.2 0.00 0.99 0.99 77 3407.0
20260506152837 13 20 0.0 0.0 0.00 0.99 0.99 77 3406.8
20260506152335 12 34 1.6 3.2 0.00 0.99 0.99 78 3406.7
20260506151833 12 335 6.4 8.0 0.00 0.99 0.99 78 3407.0
20260506151329 12 295 1.6 4.8 0.00 0.99 0.99 80 3407.0
20260506150827 12 116 0.0 3.2 0.00 0.99 0.99 81 3406.8
20260506150324 13 124 0.0 0.0 0.00 0.99 0.99 83 3406.8
20260506145820 12 84 0.0 0.0 0.00 0.99 0.99 83 3406.7
20260506145316 12 89 0.0 0.0 0.00 0.99 0.99 84 3406.6
20260506144814 12 89 0.0 0.0 0.00 0.99 0.99 83 3406.5
20260506144311 12 76 0.0 0.0 0.00 0.99 0.99 84 3406.4
20260506143809 11 94 0.0 3.2 0.00 0.99 0.99 87 3406.1
20260506143306 11 83 0.0 3.2 0.00 0.99 0.99 89 3405.8
20260506142804 10 139 4.8 4.8 0.00 0.99 0.99 94 3406.1
20260506142302 10 168 8.0 11.3 0.00 0.99 0.99 98 3406.1
20260506141800 9 141 3.2 4.8 0.00 0.99 0.99 99 3406.0
20260506141258 9 83 0.0 0.0 0.00 0.99 0.99 99 3405.8
20260506140755 10 179 4.8 8.0 0.00 0.99 0.99 99 3405.5
20260506140252 10 76 0.0 0.0 0.00 0.99 0.99 99 3405.5
20260506135749 10 142 1.6 3.2 0.00 0.99 0.99 99 3405.4
20260506135245 10 86 0.0 0.0 0.00 0.99 0.99 99 3405.6
20260506134742 10 69 0.0 3.2 0.00 0.99 0.99 99 3405.5
20260506134238 10 280 3.2 4.8 0.00 0.99 0.99 99 3405.5
20260506133736 10 275 4.8 4.8 0.00 0.99 0.99 99 3405.6
20260506133232 10 20 1.6 3.2 0.00 0.99 0.99 99 3405.6
20260506132729 10 102 0.0 0.0 0.00 0.99 0.99 99 3405.6
20260506132226 9 82 0.0 0.0 0.00 0.99 0.99 99 3405.6
20260506131724 9 111 0.0 0.0 0.00 0.99 0.99 99 3405.5
20260506131220 9 327 1.6 3.2 0.00 0.99 0.99 99 3405.6
20260506130717 9 338 3.2 8.0 0.00 0.99 0.99 99 3405.7
20260506130214 9 41 1.6 3.2 0.00 0.99 0.99 99 3405.7
20260506125712 9 22 1.6 3.2 0.00 0.99 0.99 99 3405.6
20260506125209 9 64 0.0 0.0 0.00 0.99 0.99 99 3405.3
20260506124707 9 54 0.0 0.0 0.00 0.99 0.99 99 3405.6
20260506124205 9 74 0.0 0.0 0.00 0.99 0.99 99 3405.3
20260506123702 9 79 0.0 0.0 0.00 0.99 0.99 99 3405.5
20260506123201 9 83 0.0 0.0 0.00 0.99 0.99 99 3405.2
20260506122657 9 30 1.6 3.2 0.00 0.99 0.99 99 3405.2
20260506122155 9 65 0.0 3.2 0.00 0.99 0.99 99 3405.2
20260506121652 9 350 3.2 4.8 0.00 0.99 0.99 99 3405.1
20260506121148 9 39 1.6 3.2 0.00 0.99 0.99 99 3405.0
20260506120647 9 289 3.2 4.8 0.00 0.99 0.99 99 3404.9
20260506120144 9 37 3.2 4.8 0.00 0.99 0.99 99 3404.9
20260506115642 9 62 1.6 3.2 0.00 0.99 0.99 99 3404.9
20260506115140 9 8 3.2 4.8 0.00 0.99 0.99 99 3404.8
20260506114637 9 72 0.0 0.0 0.00 0.99 0.99 99 3404.4
20260506114135 9 81 0.0 0.0 0.00 0.99 0.99 99 3404.3
20260506113633 9 268 0.0 0.0 0.00 0.99 0.99 99 3404.2
20260506113130 9 105 0.0 0.0 0.00 0.99 0.99 99 3404.2
20260506112626 9 53 0.0 0.0 0.00 0.99 0.99 99 3404.4
20260506112124 9 66 0.0 0.0 0.00 0.99 0.99 99 3404.1
20260506111621 9 11 3.2 4.8 0.00 0.99 0.99 99 3404.3
20260506111119 9 345 3.2 4.8 0.00 0.99 0.99 99 3404.4
20260506110616 10 67 0.0 0.0 0.00 0.99 0.99 99 3404.4
20260506110114 10 41 1.6 3.2 0.00 0.99 0.99 99 3404.3
20260506105610 10 16 1.6 3.2 0.00 0.99 0.99 99 3404.4
20260506105107 9 48 0.0 0.0 0.00 0.99 0.99 99 3404.1
20260506104605 9 271 1.6 3.2 0.00 0.99 0.99 99 3403.9
20260506104102 9 68 0.0 0.0 0.00 0.99 0.99 99 3403.7
20260506103559 9 10 1.6 3.2 0.00 0.99 0.99 99 3403.6
20260506103056 9 260 3.2 4.8 0.00 0.99 0.99 99 3403.6
20260506102554 9 11 1.6 3.2 0.00 0.99 0.99 99 3403.3
20260506102052 9 32 1.6 3.2 0.00 0.99 0.99 99 3403.7
20260506101548 10 328 1.6 3.2 0.00 0.99 0.99 99 3403.2
20260506101045 10 48 0.0 3.2 0.00 0.99 0.99 99 3402.8
20260506100544 10 105 0.0 0.0 0.00 0.99 0.99 99 3403.1
20260506100041 9 42 1.6 3.2 0.00 0.99 0.99 99 3402.8
20260506095540 9 59 1.6 3.2 0.00 0.99 0.99 99 3402.9
20260506095036 9 346 1.6 4.8 0.00 0.99 0.99 99 3403.1
20260506094534 9 96 1.6 3.2 0.00 0.99 0.99 99 3402.9
20260506094031 9 32 0.0 3.2 0.00 0.99 0.99 99 3402.9
20260506093530 10 94 0.0 0.0 0.00 0.99 0.99 99 3402.8
20260506093027 9 88 0.0 0.0 0.00 0.99 0.99 99 3402.7
20260506092525 9 31 3.2 4.8 0.00 0.99 0.99 99 3403.0
20260506092021 9 78 0.0 0.0 0.00 0.99 0.99 99 3402.7
20260506091520 9 58 1.6 3.2 0.00 0.99 0.99 99 3402.9
20260506091016 9 45 1.6 3.2 0.00 0.99 0.99 99 3402.8
20260506090514 9 288 1.6 3.2 0.00 0.99 0.99 99 3402.6
20260506090010 9 76 0.0 0.0 0.00 0.99 0.99 99 3402.8
20260506085507 9 312 3.2 4.8 0.00 0.99 0.99 99 3402.6
20260506085003 9 51 0.0 0.0 0.00 0.99 0.99 99 3402.3
20260506084500 9 352 1.6 3.2 0.00 0.99 0.99 99 3402.4
20260506083956 9 259 4.8 4.8 0.00 0.99 0.99 99 3402.7
20260506083454 9 72 0.0 0.0 0.00 0.99 0.99 99 3402.3
20260506082951 9 297 3.2 4.8 0.00 0.99 0.99 99 3402.6
20260506082448 10 327 4.8 4.8 0.00 0.99 0.99 99 3402.6
20260506081943 10 29 1.6 3.2 0.00 0.99 0.99 99 3402.7
20260506081442 10 135 0.0 0.0 0.00 0.99 0.99 99 3402.3
20260506080939 10 2 3.2 3.2 0.00 0.99 0.99 99 3402.3
20260506080436 10 325 4.8 8.0 0.00 0.99 0.99 99 3402.6
20260506073420 7 111 1.6 3.2 0.79 0.97 0.97 99 3401.2
20260506072917 10 208 4.8 8.0 0.89 0.91 0.91 99 3401.9
20260506072414 10 268 3.2 4.8 0.79 0.84 0.84 99 3401.9
20260506071912 10 20 1.6 3.2 0.43 0.76 0.76 99 3401.6
20260506071410 10 342 8.0 11.3 0.89 0.71 0.71 99 3401.5
20260506070906 10 107 0.0 0.0 1.07 0.69 0.69 99 3401.2
20260506070403 10 93 3.2 4.8 0.43 0.58 0.58 99 3401.1
20260506062340 10 42 0.0 0.0 0.97 0.41 0.41 99 3401.3
20260506061836 10 104 0.0 0.0 1.07 0.38 0.38 99 3401.1
20260506061333 10 24 6.4 8.0 0.61 0.28 0.28 99 3401.2
20260506060831 10 301 4.8 16.1 0.13 0.20 0.20 99 3401.0
20260506060329 10 162 0.0 0.0 0.00 0.18 0.18 99 3401.4
20260506051301 11 28 1.6 3.2 0.48 0.13 0.13 99 3401.0
20260506050759 11 29 1.6 3.2 0.61 0.08 0.08 99 3400.8
20260506050256 11 333 11.3 16.1 0.43 0.05 0.05 99 3400.6
20260506044747 11 59 0.0 3.2 0.00 1.30 1.30 99 3400.0
20260506044244 11 57 1.6 3.2 0.18 1.30 1.30 99 3400.1
20260506043741 12 290 6.4 8.0 0.66 1.30 1.30 99 3400.1
20260506043238 12 332 3.2 8.0 0.61 1.24 1.24 99 3400.2
20260506042737 12 25 3.2 3.2 0.61 1.19 1.19 99 3400.0
20260506042235 12 357 1.6 3.2 0.43 1.14 1.14 99 3399.9
20260506041733 12 40 4.8 4.8 0.48 1.12 1.12 99 3399.7
20260506041230 13 86 0.0 0.0 0.79 1.07 1.07 99 3399.7
20260506040728 13 311 8.0 12.9 1.55 1.02 1.02 99 3399.4
20260506040224 15 285 17.7 20.9 1.50 0.94 0.94 99 3399.5
20260506035721 16 300 6.4 8.0 1.80 0.86 0.86 99 3399.2
20260506035218 16 76 0.0 0.0 1.68 0.71 0.71 99 3399.3
20260506034715 16 71 0.0 0.0 1.19 0.56 0.56 99 3399.5
20260506034212 16 59 1.6 3.2 0.79 0.41 0.41 99 3399.1
20260506033710 16 2 3.2 4.8 0.48 0.36 0.36 99 3399.2
20260506033206 16 43 1.6 3.2 0.00 0.28 0.28 99 3398.9
20260506032703 16 56 1.6 3.2 0.00 0.28 0.28 99 3398.9
20260506032200 16 58 0.0 0.0 0.00 0.28 0.28 99 3398.7
20260506031651 16 58 0.0 0.0 0.61 0.28 0.28 99 3398.8
20260506031148 16 58 0.0 0.0 0.61 0.28 0.28 99 3398.9
20260506030647 16 57 0.0 0.0 0.00 0.18 0.18 99 3399.0
20260506030144 16 57 0.0 0.0 0.61 0.18 0.18 99 3398.9
20260506025640 16 57 0.0 0.0 0.61 0.18 0.18 99 3399.0
20260506025136 16 55 0.0 0.0 0.00 0.08 0.08 99 3399.2
20260506024634 16 55 0.0 0.0 0.00 0.08 0.08 99 3399.1
20260506024130 16 55 0.0 0.0 0.00 0.08 0.08 99 3399.2
20260506023626 16 55 0.0 0.0 0.00 0.08 0.08 99 3399.1
20260506023124 16 55 0.0 0.0 0.00 0.08 0.08 99 3399.1
20260506022621 16 55 0.0 0.0 0.00 0.08 0.08 99 3399.1
20260506022119 16 53 0.0 0.0 0.00 0.08 0.08 98 3399.1
20260506021616 16 22 1.6 3.2 0.00 0.08 0.08 99 3399.3
20260506021113 16 25 3.2 3.2 0.00 0.08 0.08 99 3399.2
20260506020610 16 79 0.0 0.0 0.00 0.08 0.08 99 3399.1
20260506020108 16 97 0.0 0.0 0.00 0.08 0.08 98 3398.8
20260506015605 16 73 0.0 0.0 0.00 0.08 0.08 98 3398.8
20260506015102 16 87 0.0 0.0 0.00 0.08 0.08 99 3399.0
20260506014600 16 87 0.0 0.0 0.00 0.08 0.08 99 3398.9
20260506014055 16 85 0.0 0.0 0.00 0.08 0.08 99 3399.1
20260506013553 16 124 0.0 3.2 0.00 0.08 0.08 99 3399.3
20260506013050 16 125 0.0 0.0 0.00 0.08 0.08 99 3399.3
20260506012546 16 108 0.0 3.2 0.00 0.08 0.08 99 3399.3
20260506012043 16 129 0.0 0.0 0.00 0.08 0.08 99 3399.5
20260506011541 16 113 0.0 0.0 0.00 0.08 0.08 99 3399.3
20260506011037 16 113 0.0 0.0 0.00 0.08 0.08 99 3399.5
20260506010536 16 107 0.0 0.0 0.00 0.08 0.08 99 3399.2
20260506010032 16 107 0.0 0.0 0.00 0.08 0.08 98 3399.2
20260506005529 16 116 0.0 0.0 0.00 0.08 0.08 98 3399.1
20260506005025 16 119 0.0 0.0 0.00 0.08 0.08 98 3399.0
20260506004523 16 123 3.2 4.8 0.00 0.08 0.08 98 3399.4
20260506004019 16 102 0.0 0.0 0.00 0.08 0.08 98 3399.4
20260506003516 16 111 0.0 0.0 0.18 0.08 0.08 97 3399.5
20260506003012 16 109 0.0 0.0 0.18 0.08 0.08 97 3399.6
20260506002508 16 91 0.0 0.0 0.00 0.05 0.05 96 3399.2
20260506002004 16 122 0.0 0.0 0.00 0.05 0.05 96 3400.2
20260506001500 16 139 0.0 3.2 0.00 0.05 0.05 96 3400.0
20260506000958 16 112 1.6 3.2 0.00 0.05 0.05 95 3399.8
20260506000455 16 126 1.6 3.2 0.00 0.05 0.05 95 3400.0
20260505235952 17 92 1.6 3.2 0.00 0.05 0.05 94 3399.9
20260505235451 17 96 0.0 0.0 0.00 0.05 0.05 94 3399.8
20260505234947 17 133 4.8 8.0 0.00 0.05 0.05 93 3400.1
20260505234444 17 182 4.8 4.8 0.00 0.05 0.05 91 3400.0
20260505233941 18 82 0.0 0.0 0.00 0.05 0.05 87 3400.2
20260505233439 19 163 9.7 11.3 0.00 0.05 0.05 83 3399.8
20260505232936 20 143 4.8 4.8 0.00 0.05 0.05 80 3399.9
20260505232434 20 204 4.8 8.0 0.00 0.05 0.05 78 3399.7
20260505231931 20 124 3.2 4.8 0.00 0.05 0.05 76 3399.9
20260505231428 20 161 3.2 4.8 0.00 0.05 0.05 76 3399.6
20260505230926 20 155 1.6 3.2 0.00 0.05 0.05 75 3399.6
20260505230423 21 183 4.8 4.8 0.00 0.05 0.05 74 3399.8
20260505225919 21 148 3.2 4.8 0.00 0.05 0.05 74 3399.5
20260505225417 21 125 1.6 3.2 0.00 0.05 0.05 74 3399.5
20260505224912 21 86 1.6 3.2 0.00 0.05 0.05 74 3399.6
20260505224410 21 124 0.0 3.2 0.00 0.05 0.05 76 3399.7
20260505223906 21 146 3.2 4.8 0.00 0.05 0.05 76 3399.6
20260505223403 21 237 3.2 4.8 0.00 0.05 0.05 79 3399.7
20260505222859 21 139 4.8 4.8 0.00 0.05 0.05 78 3399.6
20260505222356 21 128 0.0 3.2 0.00 0.05 0.05 78 3399.3
20260505221852 21 169 0.0 0.0 0.00 0.05 0.05 78 3399.4
20260505221349 21 120 1.6 3.2 0.00 0.05 0.05 78 3399.6
20260505220846 21 91 1.6 3.2 0.00 0.05 0.05 78 3399.5
20260505220343 21 123 1.6 3.2 0.00 0.05 0.05 78 3399.6
20260505215841 21 169 4.8 4.8 0.00 0.05 0.05 78 3399.6
20260505215339 21 262 8.0 8.0 0.00 0.05 0.05 79 3399.4
20260505214837 21 142 0.0 0.0 0.00 0.05 0.05 79 3399.5
20260505214334 21 81 0.0 3.2 0.00 0.05 0.05 79 3399.6
20260505213831 20 55 1.6 3.2 0.00 0.05 0.05 80 3399.6
20260505213329 21 117 0.0 0.0 0.00 0.05 0.05 80 3399.7
20260505212825 21 103 0.0 0.0 0.00 0.05 0.05 81 3399.9
20260505212322 20 138 1.6 3.2 0.00 0.05 0.05 81 3400.0